Temp
74 75 74 72 72 71 71 72 71 70 71 73 74 72 70 71 72 72 72 72 72 71 69 69 71 71 73 73 72 70 68 67 68 70 70 71 70 71 70 72 70 74
72 73 74 74 74 74 71 70 70 69 70 69 71 75 74 73 73 74 75 74 74 72 70 69 69 71 73 74 72 70 67 68 68 70 70 71 71 69 69 72 71 75
71 71 72 71 71 71 71 68 66 66 66 67 72 74 75 75 74 74 74 75 74 73 70 71 71 71 72 72 72 69 67 67 68 72 73 73 69 71 71 70 71 74
68 70 72 73 72 70 69 70 69 67 67 67 69 70 72 75 74 74 74 74 73 72 71 72 72 72 71 71 69 68 68 70 70 73 72 73 72 71 71 72 74 74
67 68 71 72 72 70 67 67 68 66 67 67 69 70 70 74 74 75 73 73 73 72 73 72 73 72 71 72 69 66 67 68 72 73 71 67 68 68 71 73 73 74
68 69 70 71 70 70 69 69 68 67 68 67 67 70 71 73 75 73 72 73 72 73 70 71 72 70 70 69 67 67 67 69 71 72 69 67 67 68 68 72 74 74
67 67 67 70 70 70 69 69 69 68 67 68 68 67 69 69 72 75 75 72 74 71 72 70 70 70 68 68 66 66 69 70 72 73 71 68 68 66 72 74 74 74
67 67 67 68 68 68 68 67 69 69 69 68 67 69 69 70 73 77 75 76 75 76 71 76 72 71 67 67 67 67 68 70 71 70 69 68 66 69 72 73 73 74
68 67 67 66 66 67 67 67 68 69 72 70 68 69 71 74 71 69 73 74 72 74 73 77 74 72 71 69 68 68 68 69 69 68 66 66 66 67 70 72 72 71
67 67 66 66 65 65 66 67 67 68 71 72 73 74 73 76 74 74 75 75 72 70 73 76 75 74 72 72 72 70 68 67 66 66 66 66 66 67 69 70 72 71
67 67 65 65 65 65 65 66 67 67 68 70 71 71 74 75 74 74 75 72 69 69 72 73 73 73 74 72 71 72 71 70 69 67 65 65 66 66 67 68 72 71
67 67 66 66 65 65 65 65 66 66 67 68 70 71 72 73 72 74 74 74 73 71 71 70 69 69 73 71 73 73 71 70 70 68 66 66 67 67 66 69 69 74
67 67 67 67 66 66 66 66 65 65 66 67 69 69 71 72 73 72 74 74 74 72 69 67 68 71 74 74 75 73 73 72 70 68 66 65 66 68 70 71 71 75
67 68 69 69 66 66 65 65 65 65 65 66 68 70 70 71 72 71 70 72 74 73 71 68 67 68 70 74 75 75 74 72 71 68 67 66 67 70 69 69 74 75
68 68 69 68 67 66 65 64 64 64 64 64 63 64 66 70 71 70 70 70 73 73 73 71 70 68 69 69 74 75 74 72 71 70 67 66 68 70 73 74 74 74
69 68 68 68 66 65 65 65 64 63 62 62 61 62 62 64 66 69 71 69 70 72 72 70 69 69 64 55 56 68 73 73 72 70 69 67 65 68 72 73 74 73
68 67 68 67 65 65 64 64 63 62 61 60 60 60 60 61 62 62 63 66 68 67 68 70 68 68 55 50 51 53 68 73 72 71 69 67 66 67 70 72 72 74
66 67 66 65 64 64 63 63 62 61 60 59 59 58 57 58 58 59 60 60 61 63 65 65 65 53 46 48 48 49 54 68 70 68 66 66 66 66 67 70 72 69
66 66 64 63 63 63 62 61 61 60 58 57 57 57 56 55 54 55 56 58 59 60 60 63 61 42 42 41 43 44 46 55 70 67 65 64 66 67 69 71 70 71
65 64 63 63 62 62 61 60 59 58 57 57 57 56 55 53 52 52 52 53 55 56 58 57 52 43 39 41 42 41 42 47 66 67 64 64 66 70 71 74 74 74
63 63 62 62 62 61 61 59 58 57 56 56 55 54 53 52 51 50 50 50 51 52 55 56 52 40 39 39 41 41 39 45 63 66 68 67 68 69 73 71 73 72
62 60 60 62 61 61 60 58 57 56 55 55 54 54 54 53 52 51 49 49 49 49 49 50 51 41 38 39 39 41 43 58 63 65 67 69 67 73 75 74 71 73
61 60 59 60 60 60 59 57 56 56 55 55 54 53 52 51 51 50 50 49 49 48 46 47 49 44 39 38 39 39 49 59 60 63 65 64 62 67 73 64 61 63
60 60 58 59 60 59 58 58 58 58 56 56 54 52 52 52 52 51 50 49 48 47 46 46 47 45 39 38 39 39 49 58 59 60 61 61 62 66 65 64 57 47
61 59 58 58 59 58 58 58 58 58 58 57 55 54 52 53 53 51 50 50 49 48 47 46 46 45 41 38 39 40 48 57 59 60 60 61 61 61 65 64 62 54
61 59 59 59 59 59 58 58 59 59 59 58 57 57 54 53 53 52 50 49 49 48 47 46 44 45 43 38 39 39 43 54 56 58 57 57 58 59 57 57 57 57
MSLP
1014.89 1014.61 1014.49 1014.69 1014.61 1014.61 1014.49 1014.21 1014.17 1014.21 1014.21 1014.01 1013.81 1013.73 1013.57 1013.17 1013.01 1013.05 1013.17 1013.37 1013.61 1013.81 1013.93 1014.13 1014.17 1014.45 1014.61 1014.77 1015.17 1015.65 1016.09 1016.33 1016.25 1015.97 1015.89 1015.77 1015.77 1016.01 1016.21 1016.21 1016.41 1015.81
1015.21 1014.85 1014.65 1014.37 1014.37 1014.21 1014.29 1014.41 1014.49 1014.41 1014.29 1014.37 1014.17 1013.41 1013.29 1013.25 1013.09 1012.93 1012.89 1013.01 1013.13 1013.37 1013.61 1013.81 1014.01 1014.09 1014.29 1014.53 1014.85 1015.29 1015.69 1016.05 1016.17 1015.77 1015.53 1015.49 1015.49 1015.97 1016.21 1015.85 1016.05 1015.53
1015.41 1015.21 1014.97 1014.73 1014.65 1014.49 1014.33 1014.69 1015.01 1014.93 1014.73 1014.61 1014.05 1013.45 1013.09 1013.05 1013.05 1012.97 1012.85 1012.85 1012.93 1013.17 1013.61 1013.61 1013.77 1014.13 1014.37 1014.57 1014.77 1015.17 1015.49 1015.85 1015.81 1015.17 1014.93 1015.13 1015.53 1015.53 1015.57 1015.61 1015.61 1015.25
1015.85 1015.49 1015.05 1014.65 1014.45 1014.61 1014.73 1014.49 1014.73 1014.97 1014.69 1014.45 1014.25 1014.01 1013.69 1013.01 1013.05 1012.97 1012.89 1012.85 1012.93 1013.05 1013.37 1013.53 1013.73 1014.05 1014.37 1014.53 1014.77 1014.97 1015.13 1015.25 1015.17 1014.85 1014.93 1014.97 1015.13 1015.37 1015.45 1015.17 1015.01 1015.17
1016.01 1015.65 1015.17 1014.77 1014.53 1014.61 1014.73 1014.77 1014.61 1014.73 1014.61 1014.45 1014.29 1013.97 1013.85 1013.25 1012.97 1012.81 1012.81 1012.81 1012.81 1013.09 1013.05 1013.49 1013.61 1013.89 1014.13 1014.25 1014.53 1014.89 1015.01 1014.97 1014.85 1014.97 1015.13 1015.33 1015.53 1015.81 1015.41 1015.09 1015.09 1015.01
1016.05 1015.81 1015.41 1015.09 1014.85 1014.77 1014.69 1014.53 1014.49 1014.49 1014.25 1014.29 1014.25 1013.93 1013.65 1013.13 1012.77 1012.85 1012.81 1012.73 1012.81 1012.85 1013.29 1013.33 1013.29 1013.57 1013.65 1013.89 1014.01 1014.29 1014.61 1014.77 1014.73 1014.89 1015.13 1015.25 1015.61 1015.77 1015.65 1015.05 1014.77 1014.93
1016.17 1015.93 1015.69 1015.25 1015.01 1014.85 1014.77 1014.57 1014.41 1014.37 1014.25 1014.01 1013.81 1014.13 1013.93 1013.65 1012.85 1012.49 1012.41 1012.53 1012.49 1012.97 1013.01 1013.17 1013.13 1013.21 1013.29 1013.29 1013.49 1013.89 1013.93 1014.13 1014.29 1014.57 1014.93 1015.21 1015.29 1015.73 1014.97 1014.49 1014.45 1014.65
1016.17 1016.01 1015.89 1015.61 1015.33 1015.01 1014.93 1014.77 1014.41 1014.21 1013.97 1013.77 1013.73 1013.65 1013.97 1013.65 1012.81 1011.97 1011.93 1011.93 1012.01 1012.09 1012.61 1012.17 1012.77 1012.89 1013.25 1013.29 1013.29 1013.29 1013.41 1013.57 1013.93 1014.37 1014.77 1015.09 1015.37 1015.29 1014.69 1014.41 1014.33 1014.45
1016.25 1016.09 1015.97 1015.89 1015.73 1015.41 1015.13 1014.85 1014.49 1014.09 1013.69 1013.73 1013.65 1013.49 1013.13 1012.85 1012.77 1012.81 1011.97 1011.93 1012.21 1011.85 1011.89 1011.57 1011.97 1012.45 1012.65 1012.89 1013.05 1013.09 1013.29 1013.49 1013.81 1014.25 1014.65 1014.97 1015.29 1015.29 1014.93 1014.45 1014.41 1014.57
1016.45 1016.25 1016.13 1016.01 1015.89 1015.69 1015.49 1015.17 1014.89 1014.49 1013.81 1013.45 1013.05 1012.73 1012.53 1012.25 1012.29 1012.13 1012.01 1011.85 1011.93 1012.09 1011.77 1011.49 1011.69 1012.05 1012.37 1012.49 1012.61 1012.89 1013.09 1013.37 1013.53 1013.69 1013.97 1014.33 1014.81 1015.17 1015.25 1014.97 1014.29 1014.45
1016.41 1016.33 1016.29 1016.13 1015.93 1015.77 1015.61 1015.29 1014.89 1014.53 1014.17 1013.69 1013.25 1012.89 1012.45 1012.29 1012.17 1012.05 1011.85 1011.97 1012.13 1012.13 1011.81 1011.81 1011.93 1011.97 1012.13 1012.29 1012.41 1012.53 1012.73 1012.97 1013.13 1013.37 1013.77 1014.17 1014.45 1014.97 1015.33 1014.97 1014.09 1014.21
1016.53 1016.37 1016.33 1016.09 1016.01 1015.81 1015.65 1015.37 1014.97 1014.61 1014.21 1013.77 1013.41 1013.09 1012.69 1012.37 1012.33 1011.97 1011.85 1011.73 1011.69 1011.77 1011.85 1011.93 1012.05 1012.33 1011.93 1012.13 1012.05 1012.21 1012.57 1012.85 1013.05 1013.21 1013.37 1013.69 1014.01 1014.57 1015.25 1014.65 1014.05 1013.57
1016.77 1016.49 1016.29 1016.21 1016.09 1015.85 1015.65 1015.49 1015.25 1014.89 1014.45 1013.97 1013.45 1013.21 1012.93 1012.57 1012.25 1012.33 1011.81 1011.69 1011.53 1011.57 1011.85 1012.05 1012.13 1011.89 1011.33 1011.33 1011.57 1012.05 1012.37 1012.81 1013.13 1013.25 1013.33 1013.37 1013.69 1014.17 1014.09 1013.49 1013.37 1013.17
1016.85 1016.61 1016.25 1015.97 1016.25 1016.09 1015.93 1015.77 1015.49 1015.09 1014.81 1014.49 1013.89 1013.37 1013.13 1012.81 1012.49 1012.29 1012.25 1011.89 1011.53 1011.57 1011.61 1011.89 1012.05 1012.09 1011.85 1011.33 1011.37 1011.69 1012.13 1012.65 1012.89 1013.05 1013.17 1013.25 1013.29 1013.45 1013.81 1013.85 1013.13 1012.97
1016.85 1016.73 1016.49 1016.37 1016.37 1016.25 1016.13 1015.97 1015.77 1015.49 1015.21 1014.93 1014.69 1014.33 1013.65 1013.01 1012.65 1012.41 1012.21 1012.09 1011.69 1011.57 1011.61 1011.65 1011.85 1012.01 1012.01 1012.01 1011.53 1011.61 1011.97 1012.33 1012.69 1012.97 1013.17 1013.29 1013.17 1013.13 1013.01 1012.97 1013.05 1012.97
1017.01 1016.89 1016.77 1016.65 1016.73 1016.53 1016.41 1016.21 1015.97 1015.81 1015.61 1015.37 1015.17 1014.81 1014.45 1013.89 1013.33 1012.69 1012.25 1012.17 1011.93 1011.69 1011.73 1011.89 1011.93 1011.89 1011.89 1012.05 1012.49 1012.41 1011.97 1012.09 1012.33 1012.69 1012.93 1013.05 1013.25 1013.13 1012.89 1012.77 1012.77 1012.85
1017.53 1017.33 1017.09 1017.01 1017.05 1017.01 1016.81 1016.57 1016.37 1016.17 1015.97 1015.85 1015.57 1015.37 1015.01 1014.49 1014.09 1013.69 1013.29 1012.61 1012.25 1012.29 1012.05 1011.89 1012.09 1011.97 1012.01 1012.09 1011.89 1011.93 1011.85 1011.85 1012.21 1012.53 1013.01 1013.13 1013.13 1013.13 1012.89 1012.65 1012.65 1012.73
1017.89 1017.65 1017.57 1017.53 1017.45 1017.33 1017.21 1017.05 1016.85 1016.65 1016.57 1016.33 1016.05 1015.89 1015.65 1015.29 1014.89 1014.53 1014.09 1013.69 1013.21 1012.77 1012.45 1012.33 1012.45 1012.49 1012.41 1012.29 1012.21 1011.97 1012.09 1012.05 1012.13 1012.41 1012.73 1012.97 1013.05 1013.13 1013.17 1012.69 1012.45 1012.89
1018.25 1018.13 1018.05 1018.01 1017.89 1017.73 1017.65 1017.57 1017.29 1017.21 1017.09 1016.85 1016.61 1016.37 1016.25 1016.01 1015.89 1015.41 1014.93 1014.41 1013.97 1013.57 1013.25 1012.81 1012.85 1013.69 1013.33 1012.89 1012.65 1012.45 1012.45 1012.49 1012.01 1012.17 1012.33 1012.65 1012.85 1012.97 1012.73 1012.13 1012.29 1012.53
1018.69 1018.53 1018.41 1018.33 1018.21 1018.13 1018.01 1017.93 1017.81 1017.69 1017.53 1017.33 1017.05 1016.77 1016.61 1016.57 1016.41 1016.21 1015.81 1015.33 1014.93 1014.53 1014.01 1013.93 1014.17 1014.05 1013.65 1013.33 1013.05 1012.81 1012.85 1012.93 1012.21 1012.05 1012.25 1012.37 1012.53 1012.29 1011.65 1011.09 1011.37 1011.69
1019.25 1019.05 1018.93 1018.65 1018.53 1018.41 1018.33 1018.29 1018.33 1018.13 1017.97 1017.85 1017.65 1017.45 1017.21 1017.13 1016.89 1016.73 1016.61 1016.29 1015.93 1015.49 1014.97 1014.53 1014.69 1014.81 1014.25 1013.77 1013.53 1013.33 1013.17 1013.05 1012.45 1012.13 1012.01 1012.13 1012.13 1011.81 1011.17 1011.37 1011.53 1011.77
1019.65 1019.77 1019.53 1019.05 1018.85 1018.69 1018.65 1018.73 1018.69 1018.65 1018.53 1018.37 1018.17 1017.89 1017.77 1017.61 1017.41 1017.29 1017.13 1016.97 1016.69 1016.41 1016.05 1015.61 1015.25 1015.45 1015.09 1014.33 1013.77 1013.37 1013.13 1012.73 1012.29 1012.05 1011.97 1011.89 1012.09 1011.33 1010.97 1011.13 1011.77 1011.81
1020.13 1020.25 1020.05 1019.57 1019.29 1019.17 1019.13 1019.13 1019.09 1019.01 1018.89 1018.77 1018.61 1018.45 1018.25 1018.09 1017.93 1017.77 1017.65 1017.45 1017.21 1016.97 1016.81 1016.33 1015.85 1015.85 1015.61 1014.93 1014.21 1013.57 1013.01 1012.65 1012.33 1012.13 1011.97 1011.93 1012.49 1011.93 1011.13 1011.97 1012.49 1012.65
1020.81 1020.69 1020.53 1020.09 1019.77 1019.73 1019.61 1019.45 1019.41 1019.29 1019.17 1019.01 1018.97 1018.89 1018.73 1018.53 1018.33 1018.21 1018.09 1017.97 1017.81 1017.57 1017.45 1016.93 1016.37 1016.25 1016.21 1015.49 1014.53 1014.05 1013.13 1012.61 1012.17 1012.05 1012.05 1011.97 1012.09 1012.09 1012.05 1012.33 1013.13 1013.13
1021.17 1021.05 1020.85 1020.49 1020.21 1020.13 1019.97 1019.73 1019.53 1019.45 1019.37 1019.33 1019.29 1019.17 1019.13 1018.85 1018.69 1018.61 1018.53 1018.41 1018.29 1018.09 1017.85 1017.53 1017.09 1016.57 1016.33 1016.01 1014.89 1014.41 1013.17 1012.37 1012.09 1011.93 1012.05 1012.29 1012.53 1012.33 1012.33 1012.65 1012.89 1013.57
1021.45 1021.41 1021.25 1020.93 1020.61 1020.41 1020.25 1020.05 1019.85 1019.57 1019.41 1019.33 1019.33 1019.21 1019.21 1019.17 1019.01 1018.93 1018.97 1018.89 1018.77 1018.53 1018.25 1018.09 1017.85 1017.29 1016.97 1016.53 1015.57 1015.05 1013.69 1012.41 1012.13 1012.17 1012.77 1013.09 1012.89 1012.93 1013.49 1013.81 1013.89 1013.97
Wind_Speed
9 9 8 6 5 5 7 6 5 7 8 10 9 9 10 9 9 9 10 9 10 10 8 9 10 11 9 6 5 3 5 9 8 8 9 10 8 8 10 12 10 9
10 10 9 9 6 6 6 7 7 7 8 9 11 9 9 9 9 9 9 10 11 11 9 7 6 9 10 7 7 5 4 7 11 11 11 13 9 9 11 11 10 9
10 11 11 12 9 9 6 5 7 9 8 10 12 9 9 8 10 10 10 9 10 9 6 8 8 9 8 7 7 6 4 6 11 9 9 9 11 10 10 11 11 11
11 11 11 11 11 8 9 6 4 7 7 6 9 10 11 9 9 10 10 11 10 9 10 10 8 8 8 8 6 3 5 8 9 8 8 6 7 8 10 8 9 10
10 11 11 12 10 7 5 7 9 8 7 7 10 10 10 12 10 11 10 10 9 9 8 8 7 7 8 7 5 4 5 7 8 7 5 4 5 4 7 9 10 10
10 10 11 11 11 10 7 7 7 5 6 7 10 10 10 12 10 10 10 9 9 7 7 10 10 8 7 6 7 7 7 8 8 6 8 6 7 10 9 11 10 10
10 10 12 11 11 10 8 7 7 7 6 6 6 8 11 12 12 10 10 9 10 8 10 5 8 7 8 7 7 7 7 8 9 8 9 8 6 11 12 9 10 10
12 9 10 11 12 11 9 8 8 6 6 6 6 9 10 11 13 10 8 10 11 8 10 11 6 8 7 7 7 8 9 9 9 8 9 8 9 10 8 8 9 10
10 10 10 11 11 11 11 11 12 10 8 8 7 9 9 6 8 11 12 6 10 8 10 6 8 8 7 9 9 11 12 9 5 3 4 8 8 13 8 6 9 9
11 10 11 11 11 10 12 11 11 12 11 10 10 10 9 7 6 9 9 8 7 8 11 7 7 8 9 10 11 11 9 7 7 8 7 6 6 9 10 10 10 10
11 11 11 11 12 11 12 12 12 11 10 11 11 12 11 9 7 10 8 6 6 7 7 8 7 9 9 10 10 10 8 8 7 7 7 7 7 8 10 11 9 9
12 11 11 12 12 12 12 12 12 12 12 11 11 12 12 11 10 8 9 9 7 6 6 5 7 10 11 10 10 9 7 5 7 7 7 6 6 7 10 15 11 10
12 12 12 12 11 12 12 12 12 12 13 13 11 11 12 12 11 11 9 10 9 7 5 4 8 10 8 8 9 9 8 7 7 6 5 5 5 12 14 4 8 8
12 12 12 12 12 11 11 12 12 12 13 13 14 13 11 11 13 10 10 11 10 8 6 3 4 8 9 8 8 8 7 6 7 7 8 7 8 9 8 11 9 9
11 11 12 13 13 13 12 13 12 12 13 12 12 13 13 12 11 11 10 11 10 8 8 4 4 4 6 7 7 8 7 8 8 9 7 8 10 10 9 8 8 8
13 13 13 13 13 13 13 13 13 12 12 12 13 13 12 13 15 13 11 9 11 9 8 5 4 4 3 5 8 9 7 8 7 8 8 8 7 8 8 10 9 6
13 13 13 14 14 13 13 14 14 12 12 13 13 13 13 13 13 14 15 13 9 9 10 5 3 4 5 6 9 8 5 3 3 4 5 7 6 8 10 10 8 8
13 14 14 14 15 15 14 14 13 13 13 13 13 14 14 13 13 13 13 12 11 11 9 4 5 9 10 6 7 10 6 4 3 3 4 6 9 10 8 8 8 7
13 14 14 14 15 15 14 13 14 14 14 14 14 13 13 13 13 14 13 13 12 12 11 10 4 13 13 11 10 9 4 3 4 4 5 9 11 13 13 11 10 8
13 13 14 14 14 14 14 15 14 14 14 13 12 13 13 13 13 14 14 14 14 13 11 7 7 15 17 15 12 11 9 5 6 6 6 7 11 11 9 6 5 7
13 13 13 14 14 14 14 14 14 14 14 12 11 12 13 13 13 13 13 13 14 13 11 10 9 18 18 17 12 10 8 4 5 7 6 5 10 9 6 4 6 4
13 12 13 13 14 14 14 14 14 14 13 12 12 12 11 11 12 12 13 14 14 13 12 11 10 18 19 17 13 7 3 3 5 5 8 5 7 9 7 7 5 4
12 12 13 14 14 14 14 14 14 14 13 12 12 11 12 13 12 12 12 14 15 14 14 11 11 17 20 18 15 9 5 2 2 3 4 2 4 12 3 10 9 7
13 13 13 13 13 13 14 13 13 12 12 11 11 11 11 12 11 11 12 12 13 14 15 13 12 15 21 20 19 14 5 3 1 1 4 6 8 4 7 7 11 15
13 13 12 12 13 13 13 13 13 12 12 11 10 10 10 10 10 11 11 11 12 13 19 16 13 14 21 22 22 19 8 3 5 4 6 4 4 7 8 8 9 14
12 13 12 12 12 12 11 11 11 11 13 12 11 11 11 10 10 11 12 12 12 13 12 15 15 14 18 23 22 22 15 7 7 7 6 5 6 8 8 8 9 9
Wind_Direction
318 313 306 293 293 291 281 273 288 281 279 262 245 243 237 236 228 217 209 208 208 204 198 198 202 214 219 225 223 234 186 212 214 232 212 209 203 199 219 210 220 217
326 316 310 303 287 256 274 281 282 287 281 288 275 262 253 251 248 241 231 220 211 206 199 198 192 214 218 214 224 228 195 207 214 219 207 205 200 202 219 220 220 213
334 326 317 309 305 293 294 305 318 310 295 279 282 279 268 261 259 253 248 241 227 206 200 220 197 204 214 218 219 212 210 212 222 214 213 206 216 212 207 205 206 205
334 326 322 314 316 310 301 308 270 258 284 293 279 279 278 268 263 256 248 242 239 226 210 205 194 191 209 220 222 204 206 228 232 223 222 217 218 212 218 214 207 200
333 330 325 323 321 332 340 311 308 301 273 287 287 280 270 268 257 255 253 251 240 243 215 202 204 193 197 203 207 204 198 239 236 231 225 220 231 252 237 211 202 198
340 334 332 334 342 336 327 319 303 291 293 278 274 278 278 275 266 258 261 256 246 232 223 219 196 194 186 181 185 187 203 219 225 224 225 214 209 218 216 213 200 197
344 339 338 334 335 342 328 316 315 310 294 275 298 278 274 264 255 256 250 250 251 224 241 223 222 181 177 179 186 192 197 213 224 218 228 229 218 224 209 201 198 197
348 348 343 339 338 334 342 321 313 297 287 278 271 281 265 280 297 269 250 242 246 244 236 199 177 201 183 180 197 204 205 212 214 206 222 232 227 241 203 202 204 205
351 350 348 347 341 338 336 336 326 314 301 289 268 255 270 265 265 295 290 315 296 265 241 224 195 186 200 190 200 203 210 206 188 171 226 238 231 229 224 204 202 208
357 353 352 349 346 340 337 330 324 317 313 304 301 298 293 288 276 275 277 266 256 271 282 251 218 202 200 206 202 205 199 187 184 201 212 227 229 254 234 219 204 200
5 2 355 350 346 341 336 330 323 318 311 311 309 308 302 297 297 280 278 267 264 275 265 262 244 222 205 208 208 208 202 196 196 199 203 211 224 228 229 224 211 203
4 3 357 353 348 344 341 334 330 323 318 309 307 305 303 299 293 288 279 276 275 276 288 287 261 256 219 215 212 204 201 199 208 202 199 219 227 231 244 220 212 205
4 1 357 358 352 344 344 340 335 329 322 316 309 306 306 304 303 297 287 281 274 264 269 269 277 253 239 222 203 208 204 196 204 205 202 208 222 232 233 242 224 195
6 3 348 3 356 350 347 343 337 335 334 332 324 313 306 302 302 298 299 289 282 279 273 259 269 285 268 238 213 207 198 191 197 204 211 206 229 232 230 227 219 205
5 4 355 3 355 353 353 348 345 342 340 340 339 337 330 315 303 302 301 291 282 280 277 273 273 274 272 269 241 211 207 203 193 205 210 207 216 229 225 217 214 212
2 3 1 3 359 356 355 351 350 350 347 346 347 344 341 341 335 317 294 279 282 282 277 274 286 265 266 288 260 261 229 222 203 209 219 229 212 227 222 214 207 200
4 3 1 4 1 360 356 356 355 353 352 351 350 349 347 348 346 347 346 328 313 290 285 288 278 281 310 278 234 249 275 238 234 217 203 243 254 237 217 211 208 189
5 6 7 5 3 3 1 360 359 358 359 355 354 355 353 351 355 350 347 348 345 335 306 321 320 348 329 323 256 227 216 233 231 254 243 220 218 237 236 211 203 180
7 10 10 9 7 5 5 4 2 4 2 359 357 358 355 357 358 350 351 347 348 346 350 339 46 357 345 349 336 327 312 272 247 229 245 257 220 216 223 198 193 191
9 10 12 12 10 8 8 7 7 5 4 2 359 1 0 1 359 358 355 354 351 349 347 10 22 352 350 344 339 339 344 342 257 248 247 269 264 227 219 205 200 195
8 10 10 13 13 13 11 11 10 4 6 5 4 3 6 2 2 1 360 355 354 351 350 353 10 359 352 344 338 345 3 319 263 255 248 243 269 262 232 172 204 203
12 12 11 12 15 15 17 15 11 10 8 7 7 10 10 5 7 8 3 3 360 359 353 352 355 3 350 348 336 335 328 273 259 257 252 252 273 241 221 177 190 209
17 18 14 14 15 16 18 17 15 13 13 10 12 12 11 12 10 8 8 7 6 5 358 348 352 359 350 343 336 316 281 267 281 296 303 249 269 263 173 57 44 40
22 22 19 16 20 21 19 20 20 19 17 16 18 15 15 17 11 11 13 11 10 10 5 353 349 357 355 344 347 323 314 305 311 339 291 275 236 233 86 86 56 30
25 23 20 16 20 20 18 19 22 23 23 23 23 21 19 17 18 19 16 16 12 10 14 11 356 354 360 351 357 337 337 5 25 32 28 21 44 62 59 54 51 43
25 24 19 15 14 16 18 18 16 17 20 23 25 28 28 23 22 23 22 21 17 11 12 17 9 357 1 357 4 350 347 29 41 48 57 33 41 47 57 46 38 42